Regional Weather Roundup
Issued by NWS

Home | Current Version | Previous Version | Text Only | Print | Product List | Glossary Off
Versions: 1 2 3 4 5 6 7 8 9 10 11 12 13 14 15 16 17 18 19 20 21 22 23 24 25 26 27 28 29 30 31 32 33 34 35 36 37 38 39 40 41 42 43 44 45 46 47 48 49 50

000
ASUS45 KABQ 280110
RWRNM
NEW MEXICO REGIONAL WEATHER ROUNDUP
NATIONAL WEATHER SERVICE ALBUQUERQUE NM
700 PM MDT MON MAR 27 2017

NOTE: "FAIR" MEANS FEW OR NO CLOUDS BELOW 12,000 FEET AGL WITH NO
       SIGNIFICANT WEATHER OR OBSTRUCTIONS TO VISION.

      THIS PRODUCT IS RELEASED AS TWO VERSIONS.  ONE VERSION NEAR
      THE TOP OF THE HOUR CONTAINING PRELIMINARY DATA FROM ALBUQUERQUE
      AND OTHER STATIONS.  A FINAL VERSION WITH ADDITIONAL DATA IS
      ISSUED ABOUT 10 MINUTES AFTER THE HOUR.

NMZ501-503-504-510>518-280200-
NORTHWEST PLATEAU/NORTHCENTRAL MOUNTAINS

CITY           SKY/WX    TMP DP  RH WIND       PRES   REMARKS
FARMINGTON     MOCLDY    55  31  39 SE17G25   29.77F
LOS ALAMOS     FAIR      50  29  44 W9        29.88S
SANTA FE       CLOUDY    61  21  21 SW20G25   29.82F
TAOS             N/A     46  28  49 NW18      29.90R
ANGEL FIRE     DRIZZLE   42  32  69 W10G17    29.95R

$$
NMZ402-403-502-505>509-280200-
WESTCENTRAL MOUNTAINS/SOUTHWEST MOUNTAINS

CITY           SKY/WX    TMP DP  RH WIND       PRES   REMARKS
GALLUP         MOCLDY    51  31  46 S12       29.84F
GRANTS         CLOUDY    51  33  51 S9        29.89F
SILVER CITY    CLOUDY    65  23  20 W17G25    29.84F

$$
NMZ407-409-411-412-280200-
SOUTHERN DESERTS

CITY           SKY/WX    TMP DP  RH WIND       PRES   REMARKS
DEMING         FAIR      73  19  13 W21G26    29.78F
LAS CRUCES     FAIR      74  19  12 SW15      29.80S
HOLLOMAN AFB   FAIR      74  20  13 S12       29.81F
ALAMOGORDO     FAIR      72  21  15 SW13      29.80S
T OR C         FAIR      71  25  17 W15       29.78R

$$
NMZ519>523-280200-
CENTRAL VALLEYS/CENTRAL HIGHLANDS

CITY           SKY/WX    TMP DP  RH WIND       PRES   REMARKS
ALBUQUERQUE    CLOUDY    64  30  27 SW17G25   29.82R
DOUBLE EAGLE   CLOUDY    59  32  36 SW10      29.85R
MORIARTY ARPT  CLOUDY    63  26  24 SW21G28   29.86R
CLINES CORNERS CLOUDY    58  22  24 SW20      29.88R
BELEN          CLOUDY    64  30  28 NW13      29.82R
SOCORRO        CLOUDY    68  26  20 S10G22    29.79R

$$
NMZ524>526-539-540-280200-
SOUTHCENTRAL MOUNTAINS

CITY           SKY/WX    TMP DP  RH WIND       PRES   REMARKS
RUIDOSO        FAIR      59  18  20 SW21      29.91S

$$
NMZ527>531-280200-
NORTHEAST HIGHLANDS/NORTHEAST PLAINS

CITY           SKY/WX    TMP DP  RH WIND       PRES   REMARKS
LAS VEGAS      CLOUDY    57  19  22 W14       29.85R
RATON          CLOUDY    57  28  33 S17G30    29.79R
CLAYTON        FAIR      62  34  35 SE13      29.81S

$$
NMZ532>537-280200-
EASTCENTRAL PLAINS

CITY           SKY/WX    TMP DP  RH WIND       PRES   REMARKS
TUCUMCARI      FAIR      71  27  19 S15       29.75S
CANNON AFB     FAIR      67  30  25 SE12      29.81S
CLOVIS AIRPORT FAIR      64  30  27 S12       29.82S

$$
NMZ028-029-538-280200-
SOUTHEAST PLAINS

CITY           SKY/WX    TMP DP  RH WIND       PRES   REMARKS
ROSWELL        FAIR      74  27  17 SE18        N/A
ARTESIA        FAIR      77  21  12 S21       29.75S
CARLSBAD       FAIR      76  27  16 S10       29.75S
HOBBS          FAIR      72  25  17 SE7       29.82S


$$




USA.gov is the U.S. government's official web portal to all federal, state and local government web resources and services.